[[{"header":{"parameterUnit":"m.s-1","parameterCategory":2,"la1":30.2991,"la2":30.254,"lo1":-89.0895,"lo2":-89.0444,"dy":0.0017,"dx":0.0017,"nx":28,"ny":28,"refTime":"2024-05-11T21:00:00:Z","depth":"0","parameterNumber":2,"parameterNumberName":"U-component_of_CURRENTS"},"data":[0,0,0,0,0,0,0,0,0,0,0,0,0,0,0,0,0,0,0,0,0,0,0,0,0,0,0,0,0,0,0,0,0,0,0,0,0,0,0,0,0,0,0,0,0,0,0,0,0,0,0,0,0,0,0,0,0,0,0.216,0.216,0,0.2148,0.2148,0.2148,0.2128,0.2128,0.2128,0.2128,0.2117,0.2117,0.2117,0,0,0,0,0,0,0,0,0,0,0,0,0,0.2185,0.2184,0.216,0.216,0.216,0.2148,0.2148,0.2148,0.2129,0.2128,0.2128,0.2128,0.2117,0.2117,0.2117,0,0,0,0,0,0,0,0,0,0,0,0,0,0.2172,0.2184,0.216,0.2151,0.215,0.2149,0.2148,0.2148,0.2129,0.2128,0.2128,0.2128,0.2117,0.2117,0.2117,0.2121,0,0,0.2116,0.2116,0,0,0,0,0,0,0,0,0.2172,0.2171,0.2152,0.2151,0.215,0.2141,0.2153,0.2139,0.2129,0.2135,0.2128,0.2128,0.2127,0.2126,0.2121,0.2121,0.212,0.2116,0.2116,0.2116,0.2116,0,0,0,0,0,0,0,0.2173,0.2171,0.2154,0.2152,0.2151,0.2153,0.2151,0.215,0.2131,0.2134,0.2133,0.2135,0.2126,0.2122,0.2121,0.212,0.2116,0.2116,0.2116,0.2116,0.2143,0.2143,0,0,0,0,0,0,0.2178,0.2172,0.2154,0.2154,0.2163,0.2153,0.215,0.2143,0.2131,0.2129,0.2135,0.2134,0.2122,0.2121,0.2121,0.2135,0.2116,0.2116,0.2116,0.2142,0.2143,0.2144,0,0,0,0,0,0,0.2178,0.2176,0.2155,0.2165,0.2162,0.2153,0.2145,0.2143,0.2141,0.2132,0.213,0.2136,0.2122,0.2121,0.2123,0.2134,0.2116,0.2115,0.2141,0.2142,0.2143,0.2158,0,0,0,0,0,0,0.2179,0.2176,0.2173,0.2164,0.2162,0.2156,0.2145,0.2143,0.2143,0.2142,0.2132,0.2131,0.2121,0.2123,0.2123,0.2134,0.2115,0.214,0.2141,0.2143,0.2157,0.216,0.2162,0,0,0,0,0,0.2179,0.2173,0.2173,0.2171,0.2158,0.2157,0.2156,0.2147,0.2144,0.2144,0.2139,0.2131,0.2133,0.2124,0.2123,0.2134,0.2139,0.2141,0.2143,0.2155,0.2159,0.2162,0,0,0,0,0,0,0.218,0.217,0.217,0.216,0.2163,0.2154,0.2154,0.2152,0.2147,0.2146,0.2136,0.2135,0.2144,0.2139,0.2129,0.2148,0.2137,0.2139,0.2147,0.2151,0.2153,0.2154,0.2115,0,0,0,0,0,0.2181,0.2173,0.2171,0.2165,0.2166,0.2163,0.2162,0.216,0.2156,0.2153,0.2146,0.2145,0.2151,0.215,0.2152,0.2158,0.2172,0.2168,0.2171,0.2173,0.2175,0.221,0.2216,0.215,0.215,0.215,0,0,0.2179,0.2174,0.2169,0.2165,0.2164,0.2166,0.2161,0.2162,0.2165,0.2154,0.2152,0.2155,0.2156,0.2164,0.2168,0.216,0.2201,0.2175,0.2177,0.2177,0.2213,0.2219,0.2225,0.2151,0.2151,0.2151,0,0,0.2175,0.217,0.2164,0.2167,0.2171,0.2171,0.2174,0.2171,0.2171,0.2174,0.2172,0.218,0.2179,0.2184,0.2187,0.2209,0.2217,0.2213,0.2224,0.2259,0.2264,0.227,0.23,0.2308,0.2212,0.2212,0.2212,0,0.2177,0.2165,0.2165,0.2165,0.2166,0.2174,0.2175,0.218,0.2178,0.2183,0.2176,0.219,0.2189,0.2209,0.2215,0.2215,0.2236,0.2208,0.2262,0.2268,0.2273,0.2303,0.2311,0.2213,0.2213,0.2213,0.2213,0,0.2169,0.2165,0.2163,0.2164,0.2168,0.217,0.218,0.2187,0.2189,0.2194,0.2212,0.2214,0.2223,0.2229,0.2225,0.2263,0.2268,0.2264,0.2252,0.228,0.231,0.2319,0.2214,0.2214,0.2214,0.2213,0,0,0.2158,0.2158,0.2156,0.2156,0.2167,0.2166,0.2182,0.2194,0.2207,0.2213,0.2231,0.2242,0.225,0.2255,0.2261,0.2286,0.2339,0.229,0.2291,0.2317,0.2421,0.2403,0.241,0.2348,0.235,0.2351,0.2429,0,0.2152,0.2148,0.2151,0.215,0.2149,0.2163,0.2175,0.2192,0.2209,0.2231,0.2249,0.2269,0.226,0.2272,0.2297,0.2331,0.2362,0.2318,0.2392,0.2394,0.2372,0.2419,0.2256,0.2311,0.2438,0.2439,0.244,0,0.2138,0.2138,0.2133,0.214,0.2141,0.2146,0.2168,0.2182,0.2223,0.2239,0.2268,0.2289,0.2329,0.2319,0.239,0.2366,0.2396,0.2418,0.2422,0.2404,0.2391,0.2303,0.2321,0.2154,0.2453,0.2452,0.2451,0,0.2119,0.2122,0.2115,0.2116,0.2129,0.2133,0.2147,0.2182,0.2197,0.2254,0.2269,0.2325,0.2349,0.2401,0.2442,0.2428,0.2522,0.2508,0.252,0.2519,0.2394,0.2379,0.2254,0.2565,0.2565,0.2564,0.2564,0,0.2102,0.2095,0.2104,0.2099,0.2099,0.2119,0.2129,0.2157,0.22,0.2216,0.2272,0.2298,0.2372,0.2427,0.2467,0.2522,0.2546,0.2535,0.2543,0.2395,0.238,0.224,0.2161,0.2567,0.2567,0.2566,0.2566,0,0.2075,0.2079,0.2071,0.2083,0.2085,0.2086,0.2108,0.2118,0.2166,0.2193,0.2213,0.2292,0.2363,0.2431,0.2524,0.2545,0.2492,0.2618,0.2439,0.2425,0.2276,0.2205,0.2084,0.2038,0.2649,0.2649,0.2649,0,0.2059,0.2051,0.2052,0.2043,0.2045,0.2051,0.205,0.2095,0.2105,0.2179,0.2186,0.2276,0.2313,0.2446,0.2496,0.2572,0.2465,0.2491,0.2432,0.2253,0.218,0.2089,0.2053,0.2273,0.227,0.2268,0.2266,0,0.2032,0.203,0.2025,0.2007,0.1998,0.1986,0.1993,0.1995,0.2043,0.2065,0.2109,0.2154,0.2268,0.228,0.2394,0.2422,0.2286,0.2445,0.2292,0.1907,0.1765,0.1727,0.224,0.2244,0.2246,0.2248,0.2249,0.225,0.2012,0.1997,0.1984,0.1954,0.1945,0.1909,0.1867,0.1882,0.188,0.1878,0.1988,0.1991,0.2065,0.2189,0.2194,0.2075,0.2136,0.1991,0.1934,0.1871,0.1764,0.2242,0.2237,0.2239,0.2241,0.2242,0.2244,0,0.1968,0.1948,0.1929,0.1878,0.1825,0.1842,0.1807,0.1744,0.1696,0.1738,0.1753,0.1771,0.1745,0.1778,0.172,0.1576,0.1504,0.1478,0.1261,0.1271,0.1703,0.1622,0.1441,0.1441,0.1441,0.1442,0.1442,0.1442,0.1945,0.1896,0.1867,0.1756,0.1718,0.1606,0.1559,0.1498,0.1485,0.1437,0.1425,0.1476,0.1475,0.1298,0.1084,0.1049,0.089,0.0791,0.0851,0.1059,0.11,0.1139,0.1042,0.0743,0.0742,0.0347,0.0343,0.034]},{"header":{"parameterUnit":"m.s-1","parameterCategory":2,"la1":30.2991,"la2":30.254,"lo1":-89.0895,"lo2":-89.0444,"dy":0.0017,"dx":0.0017,"nx":28,"ny":28,"refTime":"2024-05-11T21:00:00:Z","depth":"0","parameterNumber":3,"parameterNumberName":"V-component_of_CURRENTS"},"data":[0,0,0,0,0,0,0,0,0,0,0,0,0,0,0,0,0,0,0,0,0,0,0,0,0,0,0,0,0,0,0,0,0,0,0,0,0,0,0,0,0,0,0,0,0,0,0,0,0,0,0,0,0,0,0,0,0,0,0.033,0.033,0,0.0296,0.0296,0.0296,0.0274,0.0273,0.0273,0.0273,0.0221,0.022,0.0219,0,0,0,0,0,0,0,0,0,0,0,0,0,0.0355,0.0355,0.033,0.033,0.0329,0.0297,0.0296,0.0295,0.0274,0.0273,0.0273,0.0273,0.0222,0.022,0.0218,0,0,0,0,0,0,0,0,0,0,0,0,0,0.0335,0.0355,0.033,0.0315,0.0313,0.0297,0.0296,0.0295,0.0274,0.0273,0.0273,0.0273,0.0222,0.022,0.0218,0.0209,0,0,0.0212,0.0211,0,0,0,0,0,0,0,0,0.0336,0.0334,0.0317,0.0316,0.0314,0.0289,0.0286,0.0266,0.0274,0.0288,0.0273,0.0273,0.0243,0.0239,0.0233,0.0207,0.0205,0.0212,0.0211,0.021,0.021,0,0,0,0,0,0,0,0.0337,0.0335,0.0316,0.0317,0.0315,0.0303,0.03,0.0282,0.0266,0.0287,0.0285,0.0282,0.0241,0.0235,0.0231,0.0204,0.0212,0.021,0.0209,0.0209,0.0166,0.0166,0,0,0,0,0,0,0.0344,0.0336,0.0317,0.0315,0.0325,0.0302,0.0299,0.0297,0.0266,0.0262,0.0282,0.0281,0.0238,0.0234,0.0229,0.0225,0.021,0.0208,0.0207,0.0166,0.0166,0.0166,0,0,0,0,0,0,0.0344,0.0342,0.0319,0.0325,0.0322,0.0302,0.03,0.0296,0.0291,0.0263,0.0258,0.0281,0.0238,0.0232,0.0218,0.0223,0.0207,0.0206,0.0166,0.0166,0.0166,0.0212,0,0,0,0,0,0,0.0345,0.0343,0.0344,0.0326,0.0321,0.0313,0.03,0.0296,0.0289,0.0288,0.026,0.0255,0.0237,0.0221,0.0216,0.022,0.0204,0.0166,0.0166,0.0166,0.021,0.0213,0.0216,0,0,0,0,0,0.0346,0.0349,0.0344,0.0341,0.0323,0.0313,0.031,0.0295,0.029,0.0289,0.0272,0.0256,0.0218,0.022,0.0214,0.0217,0.0166,0.0166,0.0166,0.0209,0.0213,0.0216,0,0,0,0,0,0,0.0361,0.0347,0.034,0.0339,0.0329,0.031,0.0308,0.0299,0.0285,0.0285,0.0258,0.0252,0.0241,0.0222,0.0225,0.0204,0.0188,0.0187,0.0223,0.0226,0.0229,0.0242,0.0203,0,0,0,0,0,0.0365,0.0363,0.0348,0.0347,0.0344,0.0327,0.0322,0.0313,0.0299,0.0293,0.0273,0.0253,0.0236,0.0226,0.0208,0.0198,0.0183,0.0194,0.0197,0.02,0.0206,0.0186,0.0188,0.0166,0.0166,0.0166,0,0,0.0369,0.0362,0.036,0.035,0.0341,0.0343,0.0324,0.032,0.0322,0.0289,0.0285,0.0263,0.0235,0.0225,0.0218,0.021,0.02,0.02,0.0203,0.0207,0.0187,0.0189,0.0191,0.0166,0.0166,0.0166,0,0,0.0381,0.0373,0.0378,0.0372,0.0363,0.0355,0.0356,0.0341,0.0335,0.0326,0.0305,0.0288,0.026,0.0244,0.0232,0.0238,0.0216,0.023,0.0255,0.0237,0.0239,0.024,0.0232,0.0232,0.0231,0.0231,0.0231,0,0.0389,0.0392,0.0377,0.0382,0.0382,0.0364,0.0373,0.0365,0.0346,0.0346,0.0331,0.0295,0.027,0.0261,0.0262,0.0246,0.0235,0.0247,0.0242,0.0243,0.0244,0.0235,0.0234,0.0233,0.0233,0.0233,0.0233,0,0.0405,0.0407,0.0411,0.0412,0.0411,0.0415,0.0405,0.0405,0.0394,0.0383,0.0371,0.0335,0.0315,0.0302,0.0283,0.0277,0.0269,0.0249,0.0237,0.0249,0.0238,0.0237,0.0236,0.0236,0.0235,0.0234,0,0,0.0425,0.0423,0.0425,0.0433,0.0429,0.0433,0.044,0.0442,0.0454,0.0425,0.0433,0.0393,0.0374,0.0358,0.033,0.031,0.0304,0.0286,0.0284,0.0285,0.0273,0.0325,0.0328,0.0285,0.0285,0.0285,0.0267,0,0.0444,0.0461,0.0454,0.0476,0.0486,0.0477,0.0488,0.0488,0.0482,0.0484,0.0446,0.0436,0.0395,0.0388,0.0362,0.0323,0.0303,0.0312,0.0254,0.0253,0.0303,0.0329,0.0458,0.0457,0.0265,0.0265,0.0265,0,0.0468,0.0476,0.0499,0.0515,0.052,0.0531,0.0554,0.056,0.0557,0.0552,0.0534,0.0503,0.0475,0.0433,0.0373,0.0382,0.0333,0.0295,0.0293,0.0326,0.0303,0.0411,0.0463,0.0461,0.0263,0.0263,0.0264,0,0.0499,0.0511,0.0534,0.0537,0.055,0.0565,0.0575,0.0583,0.06,0.0597,0.0604,0.0562,0.0549,0.048,0.0407,0.0388,0.0344,0.0305,0.0302,0.0305,0.0396,0.0408,0.0448,0.0256,0.0256,0.0256,0.0256,0,0.0527,0.0545,0.0551,0.0564,0.06,0.0598,0.0638,0.0644,0.0659,0.0694,0.0641,0.0663,0.0559,0.052,0.0437,0.0388,0.0367,0.0321,0.0309,0.0417,0.043,0.0416,0.0384,0.0256,0.0256,0.0256,0.0256,0,0.0559,0.056,0.0589,0.0606,0.0617,0.0645,0.0681,0.071,0.0717,0.0762,0.0763,0.074,0.071,0.061,0.0515,0.0446,0.0402,0.0356,0.05,0.0506,0.0504,0.0469,0.0475,0.0495,0.0355,0.0356,0.0357,0,0.0577,0.0594,0.0624,0.0645,0.0656,0.0693,0.0723,0.0742,0.078,0.0824,0.0853,0.0837,0.0862,0.0754,0.0656,0.0549,0.0476,0.0551,0.0532,0.0542,0.0493,0.0458,0.0471,0.0667,0.0671,0.0674,0.0676,0,0.0611,0.062,0.0642,0.0685,0.072,0.0762,0.0808,0.0848,0.0886,0.0937,0.1012,0.104,0.0994,0.0981,0.0838,0.0755,0.0612,0.0606,0.0582,0.0724,0.0723,0.0726,0.0635,0.0702,0.0699,0.0697,0.0696,0.0695,0.0637,0.0655,0.0682,0.0724,0.0768,0.0824,0.0862,0.093,0.1011,0.1107,0.1146,0.1235,0.1243,0.1104,0.0982,0.0885,0.0797,0.0838,0.0789,0.0747,0.0797,0.077,0.0841,0.084,0.0838,0.0837,0.0836,0,0.0661,0.0679,0.0718,0.0765,0.0812,0.0832,0.0912,0.0956,0.1062,0.1218,0.1314,0.1471,0.1437,0.1331,0.1218,0.11,0.1037,0.1017,0.1007,0.1002,0.097,0.1019,0.1175,0.1175,0.1175,0.1175,0.1175,0.1175,0.0672,0.0704,0.0717,0.0787,0.0825,0.088,0.0923,0.1009,0.1126,0.1349,0.1517,0.1642,0.1695,0.1416,0.1266,0.1211,0.113,0.1122,0.1014,0.1006,0.0986,0.0966,0.1006,0.1157,0.1157,0.1128,0.1128,0.1128]}],[{"header":{"parameterUnit":"m.s-1","parameterCategory":2,"la1":30.2991,"la2":30.254,"lo1":-89.0895,"lo2":-89.0444,"dy":0.0017,"dx":0.0017,"nx":28,"ny":28,"refTime":"2024-05-11T21:00:00:Z","depth":"2","parameterNumber":2,"parameterNumberName":"U-component_of_CURRENTS"},"data":[0,0,0,0,0,0,0,0,0,0,0,0,0,0,0,0,0,0,0,0,0,0,0,0,0,0,0,0,0,0,0,0,0,0,0,0,0,0,0,0,0,0,0,0,0,0,0,0,0,0,0,0,0,0,0,0,0,0,0.2173,0.2173,0,0.2162,0.2162,0.2161,0.2143,0.2142,0.2142,0.2142,0.2132,0.2132,0.2132,0,0,0,0,0,0,0,0,0,0,0,0,0,0.2197,0.2196,0.2173,0.2173,0.2173,0.2162,0.2162,0.2161,0.2143,0.2142,0.2142,0.2142,0.2132,0.2132,0.2132,0,0,0,0,0,0,0,0,0,0,0,0,0,0.2184,0.2196,0.2173,0.2164,0.2163,0.2162,0.2162,0.2161,0.2143,0.2142,0.2142,0.2142,0.2132,0.2132,0.2132,0.2136,0,0,0.2131,0.2131,0,0,0,0,0,0,0,0,0.2185,0.2183,0.2165,0.2165,0.2164,0.2155,0.2166,0.2154,0.2143,0.2149,0.2142,0.2142,0.2141,0.214,0.2136,0.2136,0.2135,0.2131,0.2131,0.2131,0.2131,0,0,0,0,0,0,0,0.2186,0.2184,0.2167,0.2165,0.2165,0.2167,0.2164,0.2164,0.2145,0.2148,0.2147,0.2149,0.2141,0.2136,0.2136,0.2135,0.2131,0.2131,0.2131,0.2131,0.2159,0.216,0,0,0,0,0,0,0.219,0.2184,0.2167,0.2167,0.2176,0.2167,0.2164,0.2157,0.2145,0.2144,0.2149,0.2148,0.2137,0.2136,0.2135,0.2151,0.2131,0.2131,0.2131,0.2158,0.2159,0.216,0,0,0,0,0,0,0.2191,0.2188,0.2168,0.2177,0.2175,0.2166,0.2159,0.2157,0.2155,0.2146,0.2144,0.215,0.2137,0.2136,0.2138,0.215,0.2131,0.2131,0.2157,0.2158,0.2159,0.2174,0,0,0,0,0,0,0.2191,0.2188,0.2186,0.2177,0.2175,0.217,0.2159,0.2157,0.2157,0.2156,0.2147,0.2145,0.2136,0.2139,0.2138,0.2149,0.2131,0.2156,0.2158,0.2159,0.2173,0.2176,0.2179,0,0,0,0,0,0.2192,0.2185,0.2186,0.2184,0.2171,0.217,0.2169,0.2161,0.2158,0.2158,0.2153,0.2146,0.2149,0.2139,0.2138,0.2149,0.2155,0.2157,0.2159,0.2172,0.2175,0.2179,0,0,0,0,0,0,0.2193,0.2183,0.2183,0.2173,0.2176,0.2168,0.2167,0.2166,0.2162,0.2161,0.2151,0.2149,0.2159,0.2155,0.2144,0.2164,0.2153,0.2155,0.2163,0.2166,0.2169,0.217,0.2131,0,0,0,0,0,0.2194,0.2185,0.2184,0.2178,0.218,0.2177,0.2176,0.2173,0.217,0.2167,0.2161,0.216,0.2166,0.2166,0.2168,0.2174,0.2188,0.2184,0.2187,0.2189,0.2191,0.2226,0.2233,0.2166,0.2166,0.2166,0,0,0.2192,0.2187,0.2182,0.2178,0.2178,0.218,0.2175,0.2176,0.2179,0.2168,0.2167,0.217,0.2172,0.218,0.2184,0.2176,0.2217,0.2192,0.2194,0.2194,0.2229,0.2235,0.2241,0.2167,0.2167,0.2167,0,0,0.2188,0.2182,0.2177,0.218,0.2184,0.2184,0.2188,0.2185,0.2185,0.2188,0.2187,0.2195,0.2194,0.22,0.2203,0.2225,0.2233,0.223,0.224,0.2275,0.2281,0.2286,0.2316,0.2324,0.2228,0.2229,0.2229,0,0.219,0.2178,0.2178,0.2179,0.218,0.2188,0.2188,0.2194,0.2192,0.2197,0.219,0.2206,0.2205,0.2224,0.2231,0.2231,0.2253,0.2224,0.2279,0.2284,0.2289,0.2319,0.2327,0.2229,0.2229,0.2229,0.2229,0,0.2182,0.2178,0.2177,0.2178,0.2182,0.2184,0.2194,0.2201,0.2203,0.2208,0.2227,0.2229,0.2239,0.2244,0.2241,0.2279,0.2284,0.228,0.2268,0.2297,0.2326,0.2335,0.2231,0.223,0.223,0.223,0,0,0.2171,0.2171,0.217,0.2169,0.218,0.218,0.2196,0.2209,0.2222,0.2228,0.2246,0.2258,0.2266,0.2271,0.2277,0.2302,0.2355,0.2306,0.2308,0.2333,0.2437,0.2417,0.2424,0.2364,0.2366,0.2367,0.2445,0,0.2165,0.2162,0.2164,0.2164,0.2163,0.2177,0.219,0.2206,0.2224,0.2246,0.2264,0.2284,0.2276,0.2288,0.2313,0.2347,0.2377,0.2334,0.2408,0.241,0.2387,0.2433,0.2167,0.2212,0.2453,0.2454,0.2455,0,0.2151,0.2152,0.2147,0.2154,0.2155,0.216,0.2182,0.2196,0.2238,0.2254,0.2283,0.2304,0.2344,0.2335,0.2406,0.2381,0.2412,0.2434,0.2438,0.2419,0.2406,0.2223,0.2219,0.2469,0.2468,0.2467,0.2466,0,0.2132,0.2136,0.2128,0.213,0.2143,0.2148,0.2162,0.2197,0.2212,0.2269,0.2284,0.234,0.2364,0.2416,0.2457,0.2443,0.2537,0.2522,0.2534,0.2533,0.2319,0.2297,0.258,0.2579,0.2579,0.2579,0.2579,0,0.2115,0.2109,0.2118,0.2113,0.2113,0.2133,0.2143,0.2172,0.2215,0.2231,0.2286,0.2312,0.2387,0.2442,0.2481,0.2536,0.256,0.2549,0.2557,0.2319,0.2297,0.2524,0.2517,0.2582,0.2581,0.2581,0.258,0,0.2088,0.2092,0.2084,0.2097,0.2099,0.21,0.2122,0.2132,0.2181,0.2208,0.2227,0.2307,0.2377,0.2445,0.2537,0.2558,0.2619,0.263,0.2348,0.2323,0.2587,0.2579,0.266,0.266,0.266,0.266,0.266,0,0.2072,0.2064,0.2065,0.2057,0.2059,0.2065,0.2064,0.211,0.212,0.2194,0.22,0.2289,0.2321,0.2453,0.2473,0.2541,0.2626,0.2394,0.2322,0.2598,0.2598,0.259,0.2583,0.2041,0.2036,0.2032,0.2029,0,0.2045,0.2043,0.2038,0.2021,0.2012,0.2,0.2007,0.201,0.2058,0.2076,0.2119,0.216,0.2243,0.2193,0.2294,0.2308,0.2363,0.2317,0.2668,0.2077,0.2025,0.2022,0.2032,0.1992,0.1996,0.1998,0.2,0.2002,0.2025,0.201,0.1998,0.1968,0.1959,0.1924,0.1882,0.1893,0.1887,0.1877,0.1979,0.1963,0.2005,0.2015,0.1985,0.1988,0.2169,0.2117,0.2124,0.2137,0.2067,0.2019,0.1972,0.1975,0.1978,0.198,0.1983,0,0.1973,0.1962,0.1942,0.1892,0.1835,0.1857,0.1822,0.1764,0.1708,0.174,0.1735,0.1618,0.1569,0.1642,0.1552,0.1607,0.1533,0.1589,0.1449,0.1487,0.1521,0.1414,0.1148,0.1146,0.1144,0.1142,0,0,0.1947,0.1895,0.1867,0.1758,0.1727,0.1624,0.1578,0.1524,0.1516,0.146,0.1427,0.149,0.1583,0.1334,0.1307,0.1211,0.134,0.1167,0.1831,0.1701,0.1732,0.1819,0.1699,0,0,0,0,0]},{"header":{"parameterUnit":"m.s-1","parameterCategory":2,"la1":30.2991,"la2":30.254,"lo1":-89.0895,"lo2":-89.0444,"dy":0.0017,"dx":0.0017,"nx":28,"ny":28,"refTime":"2024-05-11T21:00:00:Z","depth":"2","parameterNumber":3,"parameterNumberName":"V-component_of_CURRENTS"},"data":[0,0,0,0,0,0,0,0,0,0,0,0,0,0,0,0,0,0,0,0,0,0,0,0,0,0,0,0,0,0,0,0,0,0,0,0,0,0,0,0,0,0,0,0,0,0,0,0,0,0,0,0,0,0,0,0,0,0,0.0291,0.0291,0,0.0257,0.0257,0.0256,0.0235,0.0235,0.0235,0.0235,0.0182,0.0181,0.018,0,0,0,0,0,0,0,0,0,0,0,0,0,0.0316,0.0316,0.0291,0.0291,0.029,0.0257,0.0257,0.0256,0.0235,0.0235,0.0235,0.0235,0.0183,0.0181,0.018,0,0,0,0,0,0,0,0,0,0,0,0,0,0.0296,0.0316,0.0291,0.0276,0.0274,0.0257,0.0257,0.0256,0.0235,0.0235,0.0235,0.0235,0.0183,0.0181,0.0179,0.017,0,0,0.0173,0.0173,0,0,0,0,0,0,0,0,0.0297,0.0295,0.0279,0.0277,0.0275,0.0251,0.0246,0.0226,0.0235,0.0249,0.0235,0.0234,0.0204,0.02,0.0194,0.0167,0.0165,0.0173,0.0172,0.0171,0.0171,0,0,0,0,0,0,0,0.0298,0.0296,0.0277,0.0278,0.0276,0.0264,0.0261,0.0243,0.0227,0.0248,0.0247,0.0244,0.0203,0.0196,0.0192,0.0164,0.0173,0.0172,0.017,0.017,0.0126,0.0126,0,0,0,0,0,0,0.0305,0.0298,0.0278,0.0276,0.0286,0.0264,0.026,0.0258,0.0228,0.0223,0.0244,0.0243,0.0199,0.0195,0.019,0.0186,0.0171,0.0169,0.0168,0.0126,0.0126,0.0126,0,0,0,0,0,0,0.0305,0.0303,0.028,0.0286,0.0283,0.0263,0.0261,0.0258,0.0252,0.0225,0.022,0.0243,0.0199,0.0193,0.0179,0.0184,0.0168,0.0167,0.0126,0.0126,0.0126,0.0173,0,0,0,0,0,0,0.0306,0.0304,0.0305,0.0287,0.0282,0.0274,0.0261,0.0257,0.0251,0.0249,0.0222,0.0217,0.0198,0.0182,0.0177,0.0181,0.0165,0.0126,0.0126,0.0126,0.0171,0.0174,0.0177,0,0,0,0,0,0.0307,0.031,0.0305,0.0303,0.0284,0.0274,0.0271,0.0256,0.0251,0.0251,0.0234,0.0218,0.0179,0.0181,0.0175,0.0178,0.0126,0.0126,0.0126,0.017,0.0174,0.0177,0,0,0,0,0,0,0.0322,0.0308,0.0302,0.03,0.029,0.0271,0.0269,0.026,0.0246,0.0246,0.0219,0.0213,0.0202,0.0182,0.0186,0.0164,0.0149,0.0148,0.0184,0.0187,0.019,0.0203,0.0164,0,0,0,0,0,0.0326,0.0324,0.0309,0.0308,0.0305,0.0288,0.0283,0.0275,0.026,0.0254,0.0235,0.0214,0.0197,0.0187,0.0168,0.0158,0.0144,0.0155,0.0158,0.016,0.0166,0.0147,0.0149,0.0126,0.0126,0.0126,0,0,0.033,0.0324,0.0322,0.0311,0.0302,0.0303,0.0285,0.0281,0.0283,0.025,0.0246,0.0224,0.0196,0.0186,0.0179,0.0171,0.016,0.0161,0.0163,0.0168,0.0148,0.015,0.0152,0.0126,0.0126,0.0126,0,0,0.0343,0.0334,0.0339,0.0333,0.0324,0.0316,0.0317,0.0302,0.0296,0.0288,0.0267,0.0249,0.0221,0.0205,0.0192,0.0199,0.0177,0.0191,0.0217,0.0198,0.02,0.0202,0.0194,0.0194,0.0192,0.0192,0.0192,0,0.035,0.0353,0.0339,0.0343,0.0343,0.0325,0.0334,0.0326,0.0308,0.0307,0.0292,0.0256,0.0231,0.0222,0.0223,0.0207,0.0196,0.0208,0.0203,0.0204,0.0205,0.0196,0.0196,0.0194,0.0194,0.0194,0.0194,0,0.0366,0.0369,0.0372,0.0373,0.0372,0.0376,0.0366,0.0366,0.0356,0.0344,0.0333,0.0297,0.0277,0.0263,0.0244,0.0239,0.023,0.0211,0.0198,0.0211,0.02,0.0199,0.0197,0.0197,0.0196,0.0195,0,0,0.0386,0.0384,0.0386,0.0394,0.039,0.0394,0.0401,0.0403,0.0415,0.0387,0.0394,0.0355,0.0335,0.032,0.0292,0.0272,0.0267,0.0248,0.0246,0.0248,0.0236,0.0287,0.029,0.0248,0.0248,0.0248,0.023,0,0.0405,0.0422,0.0415,0.0436,0.0447,0.0438,0.0449,0.0448,0.0443,0.0445,0.0407,0.0398,0.0357,0.035,0.0325,0.0285,0.0266,0.0274,0.0217,0.0216,0.0265,0.0291,0.0208,0.019,0.0229,0.0228,0.0228,0,0.0429,0.0437,0.046,0.0476,0.048,0.0492,0.0515,0.0521,0.0518,0.0513,0.0495,0.0464,0.0437,0.0396,0.0336,0.0345,0.0296,0.0258,0.0256,0.0288,0.0265,0.0181,0.0187,0.0226,0.0227,0.0227,0.0227,0,0.046,0.0472,0.0495,0.0498,0.051,0.0526,0.0536,0.0544,0.0561,0.0558,0.0566,0.0524,0.051,0.0442,0.037,0.0351,0.0308,0.0268,0.0265,0.0268,0.0179,0.0175,0.022,0.022,0.022,0.022,0.022,0,0.0488,0.0506,0.0512,0.0525,0.0561,0.0559,0.0599,0.0605,0.062,0.0655,0.0603,0.0624,0.0521,0.0482,0.0399,0.0351,0.033,0.0283,0.0272,0.0195,0.0193,0.0205,0.0204,0.022,0.022,0.022,0.022,0,0.052,0.0521,0.055,0.0567,0.0578,0.0606,0.0642,0.0671,0.0678,0.0723,0.0723,0.0701,0.067,0.0571,0.0477,0.0408,0.0339,0.0319,0.0251,0.0233,0.0299,0.03,0.0313,0.0315,0.0316,0.0318,0.0319,0,0.0539,0.0555,0.0585,0.0606,0.0617,0.0654,0.0684,0.0703,0.074,0.0784,0.0812,0.0796,0.0808,0.0701,0.0541,0.0415,0.0407,0.0292,0.0244,0.0324,0.031,0.0309,0.0308,0.0131,0.0131,0.013,0.013,0,0.0573,0.0582,0.0603,0.0646,0.0682,0.0723,0.0769,0.0808,0.0846,0.0882,0.0956,0.0971,0.0868,0.0717,0.055,0.0451,0.0308,0.0285,0.0365,0.0148,0.0159,0.0144,0.0147,0.0125,0.0126,0.0126,0.0126,0.0127,0.0598,0.0617,0.0644,0.0686,0.0729,0.0785,0.0822,0.0832,0.0892,0.0886,0.0989,0.0938,0.0843,0.0563,0.045,0.0292,0.0323,0.0233,0.023,0.0229,0.0239,0.0255,0.0241,0.0242,0.0243,0.0244,0.0245,0,0.0601,0.0641,0.0679,0.0726,0.0743,0.0793,0.0872,0.0831,0.0845,0.0846,0.0852,0.0711,0.0589,0.0484,0.0231,0.0156,0.0089,0.0133,0.0041,0.0046,0.0051,0.0048,0.0001,0.0,-0.0,-0.0001,0,0,0.0606,0.0626,0.0638,0.0691,0.075,0.0747,0.0788,0.0729,0.0691,0.0623,0.0585,0.0571,0.0552,0.0321,0.0211,0.0095,0.008,0.0061,0.0257,0.0164,0.0169,0.0106,0.0109,0,0,0,0,0]}],[{"header":{"parameterUnit":"m.s-1","parameterCategory":2,"la1":30.2991,"la2":30.254,"lo1":-89.0895,"lo2":-89.0444,"dy":0.0017,"dx":0.0017,"nx":28,"ny":28,"refTime":"2024-05-11T21:00:00:Z","depth":"4","parameterNumber":2,"parameterNumberName":"U-component_of_CURRENTS"},"data":[0,0,0,0,0,0,0,0,0,0,0,0,0,0,0,0,0,0,0,0,0,0,0,0,0,0,0,0,0,0,0,0,0,0,0,0,0,0,0,0,0,0,0,0,0,0,0,0,0,0,0,0,0,0,0,0,0,0,0.1412,0.1413,0,0.1451,0.1451,0.1452,0.1488,0.1489,0.149,0.149,0.1537,0.1538,0.1538,0,0,0,0,0,0,0,0,0,0,0,0,0,0.1362,0.1363,0.1412,0.1413,0.1414,0.1451,0.1451,0.1452,0.1488,0.1489,0.149,0.149,0.1537,0.1537,0.1538,0,0,0,0,0,0,0,0,0,0,0,0,0,0.1389,0.1363,0.1412,0.1438,0.144,0.1451,0.1451,0.1452,0.1488,0.1489,0.149,0.1491,0.1536,0.1537,0.1538,0.1526,0,0,0.1541,0.1542,0,0,0,0,0,0,0,0,0.1388,0.1391,0.1433,0.1436,0.1439,0.1467,0.1451,0.1478,0.1488,0.1468,0.149,0.1491,0.1515,0.1518,0.152,0.1528,0.153,0.1542,0.1542,0.1543,0.1543,0,0,0,0,0,0,0,0.1386,0.1389,0.1426,0.1434,0.1437,0.1445,0.1449,0.1456,0.1485,0.147,0.1473,0.148,0.1516,0.1519,0.1522,0.1531,0.1542,0.1542,0.1543,0.1543,0.1626,0.1628,0,0,0,0,0,0,0.1384,0.1388,0.1425,0.1427,0.1417,0.1445,0.145,0.1456,0.1484,0.149,0.1479,0.1481,0.1517,0.152,0.1524,0.159,0.1543,0.1544,0.1544,0.1625,0.1627,0.1629,0,0,0,0,0,0,0.1383,0.1387,0.1423,0.141,0.1415,0.1445,0.1451,0.1456,0.1488,0.1492,0.1497,0.1509,0.1518,0.1522,0.156,0.1589,0.1544,0.1545,0.1623,0.1625,0.1628,0.1672,0,0,0,0,0,0,0.1381,0.1386,0.1404,0.141,0.1416,0.1447,0.1451,0.1456,0.149,0.1494,0.1519,0.1522,0.1519,0.1559,0.1561,0.159,0.1546,0.1621,0.1624,0.1627,0.1668,0.1675,0.1681,0,0,0,0,0,0.1379,0.1393,0.1404,0.141,0.1435,0.1448,0.1453,0.1475,0.1491,0.1507,0.1531,0.1523,0.158,0.1561,0.1564,0.1593,0.1619,0.1623,0.1627,0.1665,0.1674,0.1681,0,0,0,0,0,0,0.1382,0.1398,0.1411,0.1431,0.1449,0.1456,0.1477,0.1491,0.1522,0.1536,0.1539,0.1545,0.1588,0.1587,0.1566,0.1627,0.16,0.1604,0.1629,0.1637,0.1643,0.1631,0.1546,0,0,0,0,0,0.139,0.1408,0.1421,0.1442,0.1452,0.1471,0.1486,0.1501,0.1521,0.1537,0.1555,0.1578,0.1599,0.1617,0.163,0.1662,0.1661,0.1685,0.1691,0.1697,0.1691,0.1723,0.1732,0.164,0.164,0.164,0,0,0.1397,0.141,0.1422,0.1445,0.1461,0.1477,0.1483,0.1512,0.1534,0.1536,0.1582,0.16,0.1612,0.1649,0.1669,0.1657,0.1725,0.1701,0.1706,0.1697,0.1728,0.1736,0.1744,0.1643,0.1642,0.1642,0,0,0.1408,0.1433,0.1448,0.1464,0.1494,0.1503,0.1518,0.1542,0.1567,0.1605,0.1617,0.1654,0.1685,0.17,0.171,0.1761,0.1756,0.1776,0.1803,0.1835,0.1842,0.1849,0.1866,0.1873,0.1783,0.1783,0.1783,0,0.1421,0.1437,0.1456,0.1473,0.1491,0.1517,0.1535,0.1559,0.1596,0.1619,0.163,0.1691,0.1705,0.1746,0.1768,0.1775,0.1789,0.177,0.1842,0.1849,0.1854,0.187,0.1878,0.1785,0.1785,0.1785,0.1785,0,0.1431,0.1457,0.1468,0.1497,0.1519,0.1542,0.157,0.1604,0.1638,0.166,0.1719,0.1742,0.1777,0.1796,0.1798,0.1852,0.1848,0.1843,0.1818,0.1866,0.188,0.1887,0.1789,0.1788,0.1787,0.1787,0,0,0.142,0.1467,0.1474,0.1492,0.1536,0.1548,0.1594,0.1633,0.1668,0.1715,0.1758,0.1806,0.1826,0.1839,0.1856,0.1888,0.1946,0.189,0.189,0.1899,0.2017,0.189,0.1886,0.1962,0.1963,0.1964,0.2012,0,0.1425,0.1457,0.1482,0.1518,0.1534,0.1575,0.1611,0.1655,0.17,0.1748,0.1789,0.1835,0.1841,0.187,0.1904,0.1936,0.1967,0.1933,0.1975,0.1976,0.1851,0.189,0.1969,0.2017,0.2019,0.202,0.2021,0,0.1417,0.1442,0.1477,0.1526,0.1539,0.1569,0.1632,0.1668,0.1738,0.1776,0.1831,0.1862,0.1921,0.1917,0.1992,0.1976,0.1999,0.2019,0.2021,0.1887,0.1862,0.1959,0.2034,0.2033,0.2032,0.2031,0.203,0,0.1382,0.1434,0.1464,0.1481,0.1541,0.1575,0.1614,0.1683,0.1717,0.18,0.1833,0.1903,0.1941,0.199,0.2031,0.2026,0.2101,0.2095,0.2,0.1992,0.2072,0.2064,0.2142,0.2142,0.2141,0.2141,0.2141,0,0.1356,0.1383,0.1455,0.1469,0.151,0.1563,0.1614,0.1665,0.1735,0.1768,0.1846,0.1872,0.1964,0.2012,0.2047,0.2037,0.2116,0.2001,0.1994,0.209,0.2085,0.2077,0.2069,0.2143,0.2143,0.2142,0.2142,0,0.1305,0.1354,0.1391,0.1466,0.1493,0.1524,0.1604,0.1633,0.1713,0.1757,0.1784,0.1868,0.1927,0.1999,0.2076,0.2036,0.2056,0.2034,0.213,0.2129,0.1923,0.1917,0.1928,0.1924,0.192,0.1917,0.1915,0,0.1277,0.1293,0.1378,0.1403,0.1443,0.1499,0.1531,0.1614,0.1639,0.1733,0.1738,0.1824,0.1871,0.1868,0.1962,0.201,0.1995,0.1984,0.1948,0.1908,0.1901,0.1901,0.1899,0.1909,0.1909,0.1908,0.1907,0,0.1225,0.127,0.1303,0.1354,0.1397,0.1427,0.1481,0.1486,0.1568,0.165,0.1645,0.1672,0.1728,0.1783,0.1829,0.1863,0.1979,0.1948,0.1955,0.1921,0.1886,0.1882,0.1885,0.1895,0.1896,0.1898,0.1898,0,0.1193,0.1203,0.1257,0.1288,0.1339,0.1343,0.1378,0.1393,0.1422,0.1517,0.1512,0.1606,0.1693,0.1708,0.1755,0.1773,0.1757,0.1702,0.1722,0.1736,0.1654,0.158,0.1486,0,0,0,0,0,0.1152,0.1154,0.1183,0.1208,0.1254,0.1281,0.1336,0.1371,0.1444,0.1398,0.1446,0.1488,0.1528,0.1584,0.1571,0.1708,0.1788,0.1687,0.174,0.1828,0.1842,0.1765,0,0,0,0,0,0,0.1125,0.1154,0.1155,0.1135,0.1139,0.1171,0.1204,0.1253,0.1229,0.131,0.1342,0.1402,0.1477,0.1524,0.1544,0.1565,0.1569,0.1753,0.1749,0.182,0.1833,0.1844,0.177,0,0,0,0,0]},{"header":{"parameterUnit":"m.s-1","parameterCategory":2,"la1":30.2991,"la2":30.254,"lo1":-89.0895,"lo2":-89.0444,"dy":0.0017,"dx":0.0017,"nx":28,"ny":28,"refTime":"2024-05-11T21:00:00:Z","depth":"4","parameterNumber":3,"parameterNumberName":"V-component_of_CURRENTS"},"data":[0,0,0,0,0,0,0,0,0,0,0,0,0,0,0,0,0,0,0,0,0,0,0,0,0,0,0,0,0,0,0,0,0,0,0,0,0,0,0,0,0,0,0,0,0,0,0,0,0,0,0,0,0,0,0,0,0,0,-0.006,-0.006,0,-0.008,-0.008,-0.0081,-0.0096,-0.0096,-0.0096,-0.0096,-0.015,-0.0152,-0.0153,0,0,0,0,0,0,0,0,0,0,0,0,0,-0.0048,-0.0048,-0.006,-0.006,-0.0061,-0.008,-0.008,-0.0081,-0.0096,-0.0096,-0.0096,-0.0096,-0.015,-0.0152,-0.0153,0,0,0,0,0,0,0,0,0,0,0,0,0,-0.0059,-0.0048,-0.006,-0.007,-0.0071,-0.008,-0.008,-0.0081,-0.0096,-0.0096,-0.0096,-0.0096,-0.0149,-0.0151,-0.0153,-0.0162,0,0,-0.0159,-0.016,0,0,0,0,0,0,0,0,-0.0058,-0.0059,-0.0069,-0.007,-0.0071,-0.0086,-0.0096,-0.011,-0.0096,-0.0087,-0.0096,-0.0096,-0.0132,-0.0135,-0.0138,-0.0164,-0.0167,-0.016,-0.0161,-0.0162,-0.0162,0,0,0,0,0,0,0,-0.0057,-0.0059,-0.0068,-0.0069,-0.007,-0.0078,-0.008,-0.0099,-0.0109,-0.0087,-0.0088,-0.0091,-0.0133,-0.0136,-0.014,-0.0168,-0.016,-0.0161,-0.0163,-0.0163,-0.0189,-0.0189,0,0,0,0,0,0,-0.0054,-0.0058,-0.0068,-0.0069,-0.0065,-0.0078,-0.008,-0.0081,-0.0108,-0.0112,-0.009,-0.0091,-0.0133,-0.0137,-0.0142,-0.0133,-0.0162,-0.0164,-0.0165,-0.019,-0.0189,-0.0189,0,0,0,0,0,0,-0.0053,-0.0054,-0.0067,-0.0064,-0.0066,-0.0078,-0.0079,-0.0081,-0.0084,-0.0109,-0.0114,-0.0091,-0.0133,-0.0139,-0.0149,-0.0136,-0.0164,-0.0166,-0.019,-0.019,-0.0189,-0.013,0,0,0,0,0,0,-0.0053,-0.0054,-0.0054,-0.0063,-0.0066,-0.0068,-0.0079,-0.0081,-0.0085,-0.0086,-0.0111,-0.0117,-0.0134,-0.0146,-0.0151,-0.014,-0.0168,-0.0191,-0.019,-0.0189,-0.0132,-0.0127,-0.0123,0,0,0,0,0,-0.0052,-0.005,-0.0054,-0.0055,-0.0065,-0.0067,-0.0069,-0.0079,-0.0085,-0.0083,-0.0096,-0.0116,-0.0143,-0.0147,-0.0153,-0.0142,-0.0192,-0.019,-0.0189,-0.0135,-0.0128,-0.0123,0,0,0,0,0,0,-0.0047,-0.0052,-0.0056,-0.0056,-0.0059,-0.007,-0.0071,-0.0076,-0.0085,-0.0087,-0.011,-0.0116,-0.0121,-0.014,-0.0144,-0.0147,-0.0171,-0.0171,-0.0127,-0.0121,-0.0116,-0.0107,-0.017,0,0,0,0,0,-0.0044,-0.0043,-0.005,-0.005,-0.0051,-0.006,-0.0063,-0.0067,-0.0076,-0.008,-0.0096,-0.0112,-0.0121,-0.0128,-0.0143,-0.0146,-0.0162,-0.0143,-0.0138,-0.0134,-0.0131,-0.0137,-0.0132,-0.0185,-0.0185,-0.0185,0,0,-0.0043,-0.0045,-0.0046,-0.0048,-0.0053,-0.0046,-0.0062,-0.0062,-0.0053,-0.0085,-0.0081,-0.0098,-0.0119,-0.0118,-0.0122,-0.0132,-0.0127,-0.0133,-0.0128,-0.0128,-0.0135,-0.013,-0.0126,-0.0184,-0.0184,-0.0184,0,0,-0.0037,-0.0041,-0.0036,-0.0034,-0.0036,-0.0037,-0.0035,-0.0042,-0.0041,-0.004,-0.0056,-0.0062,-0.0084,-0.0088,-0.0095,-0.0074,-0.0102,-0.0082,-0.0048,-0.0053,-0.0049,-0.0045,-0.0056,-0.0054,-0.0077,-0.0077,-0.0077,0,-0.0035,-0.0028,-0.0035,-0.0027,-0.002,-0.003,-0.0017,-0.0016,-0.0023,-0.0018,-0.0033,-0.0046,-0.0066,-0.0055,-0.0047,-0.0061,-0.0073,-0.0066,-0.0046,-0.0043,-0.004,-0.0052,-0.0051,-0.0074,-0.0074,-0.0075,-0.0075,0,-0.0022,-0.0014,-0.0011,0.0001,0.0007,0.0015,0.002,0.0027,0.0025,0.0024,0.003,0.0008,-0.0,-0.0005,-0.002,-0.0006,-0.0024,-0.0039,-0.0058,-0.0031,-0.0046,-0.0045,-0.007,-0.0071,-0.0072,-0.0072,0,0,-0.0022,-0.0005,-0.0003,0.0012,0.0024,0.0033,0.0055,0.0072,0.0092,0.008,0.0101,0.0085,0.007,0.0062,0.0043,0.004,0.0048,0.0012,0.001,0.0006,0.0033,0.0019,0.0018,0.0037,0.0038,0.0038,0.0016,0,-0.0009,0.0014,0.0022,0.0052,0.0066,0.0076,0.0101,0.0117,0.0124,0.0141,0.0126,0.013,0.0097,0.0096,0.0089,0.006,0.0052,0.0056,0.0002,0.0001,-0.0011,0.0019,0.0039,0.0016,0.0016,0.0016,0.0016,0,0.0002,0.0018,0.0047,0.0086,0.0094,0.0114,0.0157,0.0178,0.02,0.0205,0.0207,0.0189,0.0187,0.0151,0.0119,0.0122,0.0081,0.0055,0.0053,0.0019,-0.0012,-0.0019,0.0017,0.0017,0.0017,0.0017,0.0017,0,0.0006,0.0039,0.0065,0.0076,0.0115,0.0138,0.0164,0.0195,0.0223,0.0245,0.0261,0.0248,0.0244,0.02,0.0142,0.013,0.0103,0.0077,0.0025,0.0023,0.0015,0.0011,0.0049,0.0049,0.0049,0.0049,0.0049,0,0.0017,0.0038,0.007,0.0085,0.0128,0.0152,0.0202,0.0227,0.0265,0.03,0.0291,0.0308,0.0255,0.023,0.0167,0.0105,0.0119,0.0037,0.0021,0.004,0.0039,0.0015,0.0012,0.0048,0.0048,0.0049,0.0049,0,0.0014,0.0033,0.0066,0.0111,0.013,0.0161,0.0225,0.026,0.0296,0.0342,0.035,0.0356,0.0329,0.0271,0.0206,0.014,0.008,0.0048,0.0081,0.0065,-0.0006,-0.0007,-0.001,-0.0011,-0.0011,-0.0012,-0.0012,0,0.0015,0.0029,0.008,0.0104,0.0126,0.0177,0.0215,0.0268,0.0308,0.0368,0.0389,0.0386,0.0374,0.0284,0.0216,0.0109,0.0079,0.0037,0.0007,0.0006,-0.001,-0.001,-0.0009,-0.0013,-0.0013,-0.0013,-0.0013,0,0.0016,0.003,0.0058,0.0104,0.0147,0.0198,0.0256,0.0287,0.0351,0.0386,0.0418,0.0382,0.0356,0.0284,0.0207,0.0123,0.0062,0.0031,0.003,0.0002,0.0003,-0.0013,-0.0012,-0.0015,-0.0015,-0.0015,-0.0015,0,0.0016,0.0028,0.0061,0.0103,0.0152,0.02,0.0238,0.0291,0.0337,0.0404,0.0413,0.0396,0.0394,0.0291,0.0221,0.0145,0.0107,0.0051,0.0049,0.005,0.0069,0.0078,0.0078,0,0,0,0,0,0.0015,0.0025,0.0059,0.0103,0.015,0.0175,0.0256,0.0295,0.0359,0.0378,0.0398,0.0374,0.0293,0.0273,0.0192,0.019,0.0081,0.0088,0.0012,-0.0025,-0.0023,-0.0012,0,0,0,0,0,0,0.0014,0.0038,0.0049,0.009,0.0113,0.0167,0.0213,0.0262,0.0283,0.0338,0.0306,0.0315,0.0246,0.0328,0.0174,0.0157,0.0087,0.0065,0.0062,-0.0026,-0.0024,-0.0022,-0.0011,0,0,0,0,0]}]]